This is the latest recevied weather packets stored in our database for station/object KQ4UPF. If no packets are shown the sender has not sent any weather packets the latest 10 day(s).
| Time | Temp. | Humidity | Pressure | Rain* | Wind** | Luminosity | Snow |
|---|---|---|---|---|---|---|---|
| 1777783847 | 7.22° C | 91% | 1019.9 hPa | 0 mm | - | 0 W/m² | - |
| 1777783544 | 7.22° C | 90% | 1020 hPa | 0 mm | - | 0 W/m² | - |
| 1777783242 | 7.78° C | 89% | 1020.2 hPa | 0 mm | - | 0 W/m² | - |
| 1777782938 | 7.78° C | 88% | 1020 hPa | 0 mm | - | 0 W/m² | - |
| 1777782634 | 7.78° C | 88% | 1019.4 hPa | 0 mm | - | 0 W/m² | - |
| 1777782331 | 7.78° C | 88% | 1019.8 hPa | 0 mm | - | 0 W/m² | - |
| 1777782027 | 7.78° C | 88% | 1019.8 hPa | 0 mm | - | 0 W/m² | - |
| 1777781724 | 8.33° C | 86% | 1019.9 hPa | 0 mm | - | 0 W/m² | - |
| 1777781422 | 8.33° C | 86% | 1019.9 hPa | 0 mm | - | 0 W/m² | - |
| 1777781120 | 8.33° C | 85% | 1019.8 hPa | 0 mm | - | 0 W/m² | - |
| 1777780817 | 8.89° C | 82% | 1019.6 hPa | 0 mm | - | 0 W/m² | - |
| 1777780513 | 8.89° C | 81% | 1019.7 hPa | 0 mm | - | 0 W/m² | - |
| 1777780211 | 9.44° C | 80% | 1019.7 hPa | 0 mm | - | 0 W/m² | - |
| 1777779908 | 9.44° C | 80% | 1019.6 hPa | 0 mm | - | 0 W/m² | - |
| 1777779605 | 9.44° C | 79% | 1019.2 hPa | 0 mm | - | 0 W/m² | - |
| 1777779302 | 10° C | 78% | 1019.3 hPa | 0 mm | - | 0 W/m² | - |
| 1777779000 | 10.56° C | 76% | 1019.3 hPa | 0 mm | - | 0 W/m² | - |
| 1777778698 | 10.56° C | 74% | 1019.3 hPa | 0 mm | - | 0 W/m² | - |
| 1777778396 | 10.56° C | 73% | 1019.4 hPa | 0 mm | - | 0 W/m² | - |
| 1777778094 | 10.56° C | 73% | 1019.4 hPa | 0 mm | - | 0 W/m² | - |
| 1777777790 | 10.56° C | 72% | 1019.2 hPa | 0 mm | - | 0 W/m² | - |
| 1777777486 | 10° C | 76% | 1019.4 hPa | 0 mm | - | 0 W/m² | - |
| 1777777183 | 9.44° C | 79% | 1019.1 hPa | 0 mm | - | 0 W/m² | - |
| 1777776880 | 10° C | 80% | 1019.2 hPa | 0 mm | - | 0 W/m² | - |
| 1777776578 | 9.44° C | 83% | 1019.1 hPa | 0 mm | - | 0 W/m² | - |
* Rain latest hour (hover to see other rain measurements)
** Current wind speed in m/s (hover to see current wind gust speed)